Location: Newark
(33.9035°S, 18.4112°E)
Time: 07:30:08
(UTC+00:00)

STARLINK-1084 - Pass Details

Date: 22 January 2020
Orbit: 554 x 555 km, 53.0° (Epoch: 23 February)

Event Time Altitude Azimuth Distance (km) Brightness Sun altitude
Exits shadow 01:54:29 69° 271° (W) 604 3.5 -21.8°
Maximum altitude 01:54:51 75° 225° (SW) 585 3.6 -21.7°
Drops below altitude 10° 01:59:05 10° 139° (SE) 1,859 7.5 -21.1°
Sets 02:01:21 0° 136° (SE) 2,759 8.8 -20.7°
